Current weather by "City, St" or "zip code"  
 

Current Conditions: Memphis International Airport, TN

Mostly Cloudy


72.0 F

Last Updated on Sep 18 2020, 12:54 am CDT
Humidity: 79%
Wind Speed: N 11.5 mph
Barometer 30.00 in
Dewpoint: 64.9 F
Visibility: 10.00 mi
Precip: --
Heat Index: NA
Wind Chill: NA
Current conditions at:

Memphis International Airport, TN (KMEM)

Lat: 35.05644 Lon: 89.98634

Local Radar Image active severe weather and emergency alerts image image weather storm and storm spotter reports image weather observation monitoring service image
Local
Radar
Active
Alerts
Storm Reports Obs
Monitoring

Sign-up For Email & Text Message Weather Alert Notification Services



Advertise Here

Observation History for Memphis International Airport, TN


Time Wind
(mph)
Vis
(mi)
Weather Precip (in) Temperature (F) Relative
Humidity
Wind
Chill
(F)
Heat
Index
(F)
Pressure
Air Dwpt altimeter
(in)
sea level
(mb)
Rmks
12:54 am CDT N 11.5 10.00 Mostly Cloudy -- 72.0 64.9 79% NA NA 30.00 1015.4
11:54 pm CDT N 10.4 10.00 Partly Cloudy -- 73.0 64.0 74% NA NA 30.00 1015.4
10:54 pm CDT N 6.9 10.00 Mostly Cloudy -- 73.0 63.0 71% NA NA 29.99 1014.9
9:54 pm CDT N 9.2 10.00 Overcast -- 74.0 63.0 69% NA NA 29.99 1015.0
8:54 pm CDT N 8.1 10.00 Mostly Cloudy -- 76.0 62.1 62% NA NA 29.97 1014.5
7:54 pm CDT N 6.9 10.00 Overcast -- 76.0 62.1 62% NA NA 29.95 1013.9
6:54 pm CDT N 8.1 10.00 Mostly Cloudy -- 78.0 60.1 54% NA NA 29.94 1013.5
5:54 pm CDT N 9.2 10.00 Mostly Cloudy -- 79.0 57.0 47% NA NA 29.94 1013.3
4:54 pm CDT N 16.1 10.00 Mostly Cloudy -- 82.0 54.0 38% NA 81 29.93 1013.0
3:54 pm CDT N 13.8 10.00 Partly Cloudy -- 83.0 57.0 41% NA 83 29.93 1013.2
2:54 pm CDT N 12.7 10.00 Partly Cloudy -- 84.0 60.1 44% NA 84 29.94 1013.2
1:54 pm CDT N 15.0 10.00 Mostly Cloudy -- 83.0 66.9 59% NA 86 29.95 1013.6
12:54 pm CDT N 9.2 10.00 Mostly Cloudy -- 84.0 68.0 59% NA 87 29.96 1014.0
11:54 am CDT N 10.4 10.00 Partly Cloudy -- 84.0 68.0 59% NA 87 29.97 1014.6
10:54 am CDT NE 11.5 G 19.6 10.00 Partly Cloudy -- 81.0 69.1 67% NA 84 29.98 1014.9
9:54 am CDT N 8.1 10.00 A Few Clouds -- 79.0 70.0 74% NA NA 29.98 1014.9
8:54 am CDT N 10.4 10.00 A Few Clouds -- 77.0 69.1 77% NA NA 29.97 1014.3
7:54 am CDT N 6.9 10.00 A Few Clouds -- 74.0 68.0 82% NA NA 29.95 1013.7
6:54 am CDT N 6.9 10.00 A Few Clouds -- 71.0 68.0 90% NA NA 29.94 1013.3
5:54 am CDT N 6.9 10.00 Fair -- 72.0 68.0 87% NA NA 29.92 1012.7
4:54 am CDT N 6.9 10.00 Fair -- 72.0 69.1 91% NA NA 29.92 1012.6
3:54 am CDT N 6.9 10.00 A Few Clouds -- 73.0 69.1 87% NA NA 29.92 1012.9
2:54 am CDT 3.5 10.00 A Few Clouds -- 72.0 68.0 87% NA NA 29.94 1013.3
1:54 am CDT NW 4.6 10.00 Mostly Cloudy -- 74.0 68.0 82% NA NA 29.95 1013.6

Regional Weather Observation


Memphis International Airport, TN (KMEM)

Mostly Cloudy
72.0 F

Millington, Millington Municipal Airport, TN (KNQA)

Fair
70.0 F

Jonesboro, Jonesboro Municipal Airport, AR (KJBR)

Fair
71.0 F

Eaker Air Force Base, AR (KBYH)

Mostly Cloudy
82.0 F

Olive Branch, Olive Branch Airport, MS (KOLV)

NULL
70.0 F

Blytheville, Blytheville Municipal Airport, AR (KHKA)

Fair
69.0 F